• In Netherlands
  • List of Countries
  • For 7 days
  • Water Temperature
  • Satellite Maps
  • Weather Map
  • Weather Widgets
  • user-avatar
    Login

    Hourly Weather Mons

    Today, 28 February, Tuesday

    Time Temperature Precipitation Wind Pressure Humidity
    00:00 +2°C° 0 mm 6 mps 740 mmHg 89%
    01:00 +2°C° 0 mm 7 mps 740 mmHg 88%
    02:00 0°C° 0 mm 7 mps 740 mmHg 87%
    03:00 0°C° 0 mm 8 mps 740 mmHg 86%
    04:00 0°C° 0 mm 8 mps 740 mmHg 85%
    05:00 0°C° 0 mm 8 mps 740 mmHg 85%
    06:00 +2°C° 0 mm 6 mps 740 mmHg 89%
    07:00 +2°C° 0.1 mm 7 mps 740 mmHg 87%
    08:00 +2°C° 0.1 mm 8 mps 740 mmHg 85%
    09:00 +2°C° 0.1 mm 8 mps 740 mmHg 84%
    10:00 +4°C° 0.3 mm 8 mps 740 mmHg 82%
    11:00 +4°C° 0.3 mm 7 mps 740 mmHg 81%
    12:00 +5°C° 0.3 mm 7 mps 739 mmHg 79%
    13:00 +5°C° 0.3 mm 7 mps 740 mmHg 79%
    14:00 +5°C° 0.3 mm 6 mps 740 mmHg 78%
    15:00 +5°C° 0.3 mm 6 mps 740 mmHg 77%
    16:00 +4°C° 0 mm 6 mps 740 mmHg 80%
    17:00 +3°C° 0 mm 5 mps 741 mmHg 82%
    18:00 +2°C° 0 mm 5 mps 742 mmHg 85%
    19:00 +2°C° 0.2 mm 6 mps 742 mmHg 85%
    20:00 +3°C° 0.2 mm 7 mps 742 mmHg 86%
    21:00 +2°C° 0.2 mm 8 mps 743 mmHg 86%
    22:00 +2°C° 0.3 mm 8 mps 743 mmHg 87%
    23:00 +3°C° 0.3 mm 7 mps 743 mmHg 88%

    Tomorrow, 1 March, Wednesday

    Time Temperature Precipitation Wind Pressure Humidity
    00:00 +3°C° 0.3 mm 7 mps 743 mmHg 89%
    01:00 +3°C° 0.1 mm 7 mps 744 mmHg 89%
    02:00 +4°C° 0.1 mm 8 mps 744 mmHg 88%
    03:00 +4°C° 0.1 mm 8 mps 744 mmHg 88%
    04:00 +4°C° 0 mm 7 mps 745 mmHg 88%
    05:00 +3°C° 0 mm 7 mps 746 mmHg 89%
    06:00 +3°C° 0 mm 7 mps 747 mmHg 89%
    07:00 +4°C° 0 mm 7 mps 747 mmHg 87%
    08:00 +4°C° 0 mm 7 mps 748 mmHg 85%
    09:00 +5°C° 0 mm 7 mps 749 mmHg 83%
    10:00 +5°C° 0.1 mm 7 mps 749 mmHg 80%
    11:00 +6°C° 0.1 mm 7 mps 750 mmHg 78%
    12:00 +8°C° 0.1 mm 7 mps 750 mmHg 75%
    13:00 +7°C° 0.2 mm 6 mps 749 mmHg 78%
    14:00 +7°C° 0.2 mm 6 mps 749 mmHg 80%
    15:00 +7°C° 0.2 mm 6 mps 748 mmHg 82%
    16:00 +7°C° 1.4 mm 6 mps 748 mmHg 86%
    17:00 +5°C° 1.4 mm 6 mps 747 mmHg 90%
    18:00 +5°C° 1.4 mm 5 mps 746 mmHg 94%
    19:00 +5°C° 0.6 mm 6 mps 746 mmHg 94%
    20:00 +8°C° 0.6 mm 7 mps 746 mmHg 93%
    21:00 +9°C° 0.6 mm 8 mps 746 mmHg 92%
    22:00 +7°C° 0.1 mm 8 mps 746 mmHg 91%
    23:00 +7°C° 0.1 mm 9 mps 746 mmHg 90%

    Day after tomorrow, 2 March, Thursday

    Time Temperature Precipitation Wind Pressure Humidity
    00:00 +7°C° 0.1 mm 10 mps 747 mmHg 89%
    01:00 +6°C° 0.1 mm 9 mps 748 mmHg 87%
    02:00 +4°C° 0.1 mm 8 mps 749 mmHg 86%
    03:00 +3°C° 0.1 mm 7 mps 750 mmHg 85%
    04:00 +3°C° 0 mm 7 mps 751 mmHg 83%
    05:00 +2°C° 0 mm 7 mps 752 mmHg 82%
    06:00 +2°C° 0 mm 7 mps 752 mmHg 80%
    07:00 +3°C° 0 mm 7 mps 753 mmHg 76%
    08:00 +4°C° 0 mm 8 mps 754 mmHg 73%
    09:00 +5°C° 0 mm 8 mps 755 mmHg 69%
    10:00 +6°C° 0 mm 8 mps 755 mmHg 66%
    11:00 +7°C° 0 mm 8 mps 756 mmHg 64%
    12:00 +9°C° 0 mm 8 mps 757 mmHg 61%
    13:00 +9°C° 0 mm 8 mps 757 mmHg 63%
    14:00 +9°C° 0 mm 7 mps 757 mmHg 65%
    15:00 +9°C° 0 mm 7 mps 757 mmHg 68%
    16:00 +8°C° 0 mm 6 mps 757 mmHg 72%
    17:00 +7°C° 0 mm 5 mps 757 mmHg 77%
    18:00 +5°C° 0 mm 4 mps 757 mmHg 81%
    19:00 +5°C° 0 mm 5 mps 757 mmHg 81%
    20:00 +5°C° 0 mm 5 mps 756 mmHg 81%
    21:00 +3°C° 0 mm 5 mps 756 mmHg 80%
    22:00 +3°C° 0 mm 5 mps 756 mmHg 81%
    23:00 +3°C° 0 mm 5 mps 755 mmHg 82%

    3 March, Friday

    Time Temperature Precipitation Wind Pressure Humidity
    00:00 +4°C° 0 mm 4 mps 755 mmHg 82%
    01:00 +4°C° 0 mm 4 mps 754 mmHg 84%
    02:00 +3°C° 0 mm 4 mps 754 mmHg 86%
    03:00 +3°C° 0 mm 3 mps 753 mmHg 87%
    04:00 +3°C° 0 mm 4 mps 752 mmHg 88%
    05:00 +3°C° 0 mm 4 mps 751 mmHg 88%
    06:00 +4°C° 0 mm 4 mps 751 mmHg 88%
    07:00 +4°C° 1 mm 4 mps 750 mmHg 90%
    08:00 +4°C° 1 mm 4 mps 749 mmHg 92%
    09:00 +5°C° 1 mm 5 mps 748 mmHg 94%
    10:00 +6°C° 0.4 mm 5 mps 748 mmHg 92%
    11:00 +7°C° 0.4 mm 5 mps 747 mmHg 91%
    12:00 +8°C° 0.4 mm 5 mps 746 mmHg 90%
    13:00 +9°C° 0 mm 5 mps 745 mmHg 88%
    14:00 +10°C° 0 mm 5 mps 744 mmHg 86%
    15:00 +13°C° 0 mm 5 mps 743 mmHg 84%
    16:00 +12°C° 0.1 mm 4 mps 743 mmHg 86%
    17:00 +11°C° 0.1 mm 4 mps 742 mmHg 89%
    18:00 +10°C° 0.1 mm 4 mps 741 mmHg 92%
    19:00 +10°C° 0.1 mm 4 mps 741 mmHg 91%
    20:00 +9°C° 0.1 mm 5 mps 741 mmHg 91%
    21:00 +9°C° 0.1 mm 5 mps 741 mmHg 91%
    22:00 +9°C° 0.3 mm 6 mps 741 mmHg 91%
    23:00 +9°C° 0.3 mm 6 mps 740 mmHg 91%

    4 March, Saturday

    Time Temperature Precipitation Wind Pressure Humidity
    00:00 +8°C° 0.3 mm 6 mps 740 mmHg 91%
    01:00 +8°C° 0.6 mm 7 mps 740 mmHg 91%
    02:00 +6°C° 0.6 mm 7 mps 740 mmHg 91%
    03:00 +6°C° 0.6 mm 7 mps 740 mmHg 91%
    04:00 +6°C° 0.1 mm 7 mps 740 mmHg 90%
    05:00 +5°C° 0.1 mm 7 mps 741 mmHg 90%
    06:00 +5°C° 0.1 mm 7 mps 741 mmHg 90%
    07:00 +5°C° 0 mm 7 mps 742 mmHg 88%
    08:00 +6°C° 0 mm 8 mps 743 mmHg 86%
    09:00 +6°C° 0 mm 8 mps 743 mmHg 84%
    10:00 +6°C° 0.1 mm 8 mps 744 mmHg 83%
    11:00 +6°C° 0.1 mm 8 mps 744 mmHg 82%
    12:00 +6°C° 0.1 mm 8 mps 744 mmHg 80%
    13:00 +8°C° 0 mm 7 mps 744 mmHg 78%
    14:00 +9°C° 0 mm 7 mps 744 mmHg 76%
    15:00 +9°C° 0 mm 6 mps 744 mmHg 73%
    16:00 +8°C° 0 mm 6 mps 744 mmHg 77%
    17:00 +8°C° 0 mm 6 mps 744 mmHg 80%
    18:00 +7°C° 0 mm 5 mps 745 mmHg 83%
    19:00 +7°C° 0 mm 5 mps 745 mmHg 84%
    20:00 +5°C° 0 mm 6 mps 745 mmHg 86%
    21:00 +5°C° 0 mm 6 mps 745 mmHg 87%
    22:00 +5°C° 0 mm 6 mps 744 mmHg 88%
    23:00 +5°C° 0 mm 6 mps 744 mmHg 88%

    5 March, Sunday

    Time Temperature Precipitation Wind Pressure Humidity
    00:00 +5°C° 0 mm 7 mps 744 mmHg 89%
    01:00 +5°C° 0.2 mm 7 mps 744 mmHg 89%
    02:00 +5°C° 0.2 mm 7 mps 744 mmHg 89%
    03:00 +5°C° 0.2 mm 7 mps 744 mmHg 89%
    04:00 +5°C° 0.3 mm 7 mps 745 mmHg 90%
    05:00 +5°C° 0.3 mm 7 mps 745 mmHg 92%
    06:00 +5°C° 0.3 mm 7 mps 746 mmHg 93%
    07:00 +5°C° 0.1 mm 7 mps 747 mmHg 91%
    08:00 +5°C° 0.1 mm 6 mps 748 mmHg 90%
    09:00 +4°C° 0.1 mm 6 mps 749 mmHg 88%
    10:00 +5°C° 0.1 mm 6 mps 750 mmHg 87%
    11:00 +5°C° 0.1 mm 6 mps 751 mmHg 86%
    12:00 +6°C° 0.1 mm 5 mps 752 mmHg 84%
    13:00 +7°C° 0.1 mm 5 mps 752 mmHg 81%
    14:00 +7°C° 0.1 mm 5 mps 752 mmHg 78%
    15:00 +8°C° 0.1 mm 5 mps 752 mmHg 75%
    16:00 +7°C° 0 mm 4 mps 753 mmHg 79%
    17:00 +5°C° 0 mm 3 mps 753 mmHg 84%
    18:00 +5°C° 0 mm 2 mps 754 mmHg 88%
    19:00 +4°C° 0 mm 2 mps 754 mmHg 89%
    20:00 +5°C° 0 mm 1 mps 755 mmHg 89%
    21:00 +5°C° 0 mm 1 mps 756 mmHg 89%
    22:00 +4°C° 0 mm 1 mps 756 mmHg 89%
    23:00 +4°C° 0 mm 1 mps 756 mmHg 89%
    Show more